TimeMST,TemperatureF,Dew PointF,Humidity,Sea Level PressureIn,VisibilityMPH,Wind Direction,Wind SpeedMPH,Gust SpeedMPH,PrecipitationIn,Events,Conditions,WindDirDegrees,DateUTC
12:15 AM,37.4,16.2,42,30.20,10.0,South,4.6,-,N/A,,Clear,190,2013-03-06 07:15:00
12:35 AM,40.1,17.2,40,30.20,10.0,SW,3.5,-,N/A,,Clear,230,2013-03-06 07:35:00
12:55 AM,39.9,17.2,40,30.20,10.0,SSW,3.5,-,N/A,,Clear,210,2013-03-06 07:55:00
1:15 AM,39.0,17.1,41,30.20,10.0,Calm,Calm,-,N/A,,Clear,0,2013-03-06 08:15:00
1:35 AM,38.7,17.2,42,30.20,10.0,Calm,Calm,-,N/A,,Clear,0,2013-03-06 08:35:00
1:55 AM,38.3,17.6,43,30.20,10.0,Calm,Calm,-,N/A,,Clear,0,2013-03-06 08:55:00
2:15 AM,33.8,16.9,50,30.20,10.0,Calm,Calm,-,N/A,,Clear,0,2013-03-06 09:15:00
2:35 AM,33.3,16.3,50,30.19,10.0,Calm,Calm,-,N/A,,Clear,0,2013-03-06 09:35:00
2:55 AM,36.0,17.1,46,30.18,10.0,Calm,Calm,-,N/A,,Clear,0,2013-03-06 09:55:00
3:15 AM,33.3,17.1,51,30.18,10.0,South,3.5,-,N/A,,Clear,180,2013-03-06 10:15:00
3:35 AM,32.0,16.3,52,30.18,10.0,Calm,Calm,-,N/A,,Clear,0,2013-03-06 10:35:00
3:55 AM,32.7,17.4,53,30.17,10.0,Calm,Calm,-,N/A,,Clear,0,2013-03-06 10:55:00
4:55 AM,33.3,17.2,52,30.18,10.0,SSW,3.5,-,N/A,,Scattered Clouds,200,2013-03-06 11:55:00
5:15 AM,32.0,15.8,51,30.17,10.0,Calm,Calm,-,N/A,,Mostly Cloudy,0,2013-03-06 12:15:00
5:35 AM,35.1,16.9,48,30.16,10.0,SSW,3.5,-,N/A,,Scattered Clouds,210,2013-03-06 12:35:00
5:55 AM,34.7,17.4,49,30.17,10.0,South,4.6,-,N/A,,Clear,180,2013-03-06 12:55:00
6:15 AM,31.8,16.7,54,30.16,10.0,SSE,3.5,-,N/A,,Clear,160,2013-03-06 13:15:00
6:35 AM,31.6,16.5,54,30.16,10.0,South,4.6,-,N/A,,Clear,170,2013-03-06 13:35:00
6:55 AM,33.8,17.2,51,30.16,10.0,SSE,5.8,-,N/A,,Clear,150,2013-03-06 13:55:00
7:15 AM,33.8,17.1,50,30.16,10.0,ESE,4.6,-,N/A,,Clear,110,2013-03-06 14:15:00
7:35 AM,37.4,18.3,46,30.18,10.0,Calm,Calm,-,N/A,,Clear,0,2013-03-06 14:35:00
7:55 AM,36.0,17.2,47,30.18,10.0,Calm,Calm,-,N/A,,Clear,0,2013-03-06 14:55:00
8:15 AM,38.1,18.7,46,30.18,10.0,Calm,Calm,-,N/A,,Clear,0,2013-03-06 15:15:00
8:35 AM,44.1,19.4,37,30.18,10.0,SE,3.5,-,N/A,,Scattered Clouds,140,2013-03-06 15:35:00
8:55 AM,47.3,19.4,33,30.18,10.0,SE,8.1,-,N/A,,Overcast,140,2013-03-06 15:55:00
9:15 AM,47.5,19.4,33,30.18,10.0,SSE,8.1,-,N/A,,Overcast,150,2013-03-06 16:15:00
9:35 AM,48.9,20.1,32,30.18,10.0,SE,9.2,-,N/A,,Mostly Cloudy,140,2013-03-06 16:35:00
9:55 AM,52.5,20.7,29,30.17,10.0,SE,12.7,-,N/A,,Scattered Clouds,130,2013-03-06 16:55:00
10:15 AM,53.8,21.4,28,30.15,10.0,ESE,10.4,-,N/A,,Clear,120,2013-03-06 17:15:00
10:35 AM,55.8,22.1,27,30.15,10.0,SSE,8.1,-,N/A,,Clear,150,2013-03-06 17:35:00
10:55 AM,59.7,22.8,24,30.14,10.0,SE,9.2,-,N/A,,Clear,140,2013-03-06 17:55:00
11:15 AM,61.7,21.9,22,30.14,10.0,SW,4.6,-,N/A,,Clear,220,2013-03-06 18:15:00
11:35 AM,61.2,19.0,20,30.13,10.0,SW,8.1,11.5,N/A,,Clear,230,2013-03-06 18:35:00
11:55 AM,61.5,18.3,19,30.12,10.0,SW,3.5,-,N/A,,Clear,220,2013-03-06 18:55:00
12:15 PM,64.8,18.5,17,30.11,10.0,SW,11.5,18.4,N/A,,Scattered Clouds,220,2013-03-06 19:15:00
12:35 PM,63.7,18.7,18,30.10,10.0,WSW,9.2,-,N/A,,Clear,240,2013-03-06 19:35:00
12:55 PM,63.3,19.2,18,30.09,10.0,WSW,15.0,21.9,N/A,,Clear,240,2013-03-06 19:55:00
1:15 PM,64.0,18.0,17,30.08,10.0,West,18.4,25.3,N/A,,Clear,260,2013-03-06 20:15:00
1:35 PM,63.7,18.5,18,30.07,10.0,WSW,12.7,18.4,N/A,,Clear,240,2013-03-06 20:35:00
1:55 PM,63.9,18.7,18,30.07,10.0,WSW,15.0,27.6,N/A,,Clear,250,2013-03-06 20:55:00
2:15 PM,65.3,17.8,16,30.06,10.0,West,11.5,17.3,N/A,,Clear,270,2013-03-06 21:15:00
2:35 PM,66.7,14.4,13,30.06,10.0,WSW,16.1,25.3,N/A,,Clear,250,2013-03-06 21:35:00
2:55 PM,66.7,13.8,13,30.06,10.0,WSW,13.8,20.7,N/A,,Clear,240,2013-03-06 21:55:00
3:15 PM,65.8,12.4,13,30.05,10.0,West,20.7,32.2,N/A,,Clear,280,2013-03-06 22:15:00
3:35 PM,67.5,13.3,12,30.04,10.0,SW,16.1,25.3,N/A,,Clear,230,2013-03-06 22:35:00
3:55 PM,65.1,12.4,13,30.04,10.0,West,20.7,27.6,N/A,,Clear,280,2013-03-06 22:55:00
4:15 PM,65.3,11.1,12,30.04,10.0,West,19.6,32.2,N/A,,Clear,270,2013-03-06 23:15:00
4:35 PM,64.9,10.9,12,30.04,10.0,West,16.1,26.5,N/A,,Clear,270,2013-03-06 23:35:00
4:55 PM,65.3,12.2,13,30.04,10.0,West,15.0,25.3,N/A,,Clear,270,2013-03-06 23:55:00
5:15 PM,64.0,12.0,13,30.04,10.0,WSW,18.4,27.6,N/A,,Clear,240,2013-03-07 00:15:00
5:35 PM,62.8,10.9,13,30.04,10.0,West,9.2,24.2,N/A,,Clear,260,2013-03-07 00:35:00
5:55 PM,61.3,10.8,14,30.04,10.0,West,11.5,20.7,N/A,,Clear,260,2013-03-07 00:55:00
6:15 PM,59.0,9.3,14,30.04,10.0,West,11.5,16.1,N/A,,Clear,260,2013-03-07 01:15:00
6:35 PM,55.0,8.4,16,30.05,10.0,West,6.9,-,N/A,,Clear,270,2013-03-07 01:35:00
6:55 PM,52.7,7.7,16,30.06,10.0,West,8.1,-,N/A,,Clear,270,2013-03-07 01:55:00
7:15 PM,52.0,6.8,16,30.06,10.0,WSW,5.8,-,N/A,,Clear,250,2013-03-07 02:15:00
7:35 PM,46.9,7.7,20,30.07,10.0,Calm,Calm,-,N/A,,Clear,0,2013-03-07 02:35:00
7:55 PM,43.3,7.5,23,30.07,10.0,Calm,Calm,-,N/A,,Clear,0,2013-03-07 02:55:00
8:15 PM,44.4,8.6,23,30.07,10.0,Calm,Calm,-,N/A,,Clear,0,2013-03-07 03:15:00
8:35 PM,41.2,8.8,26,30.07,10.0,Calm,Calm,-,N/A,,Clear,0,2013-03-07 03:35:00
8:55 PM,36.0,5.5,28,30.08,10.0,Calm,Calm,-,N/A,,Clear,0,2013-03-07 03:55:00
9:15 PM,33.4,3.2,28,30.09,10.0,Calm,Calm,-,N/A,,Clear,0,2013-03-07 04:15:00
9:35 PM,37.9,7.5,28,30.09,10.0,Calm,Calm,-,N/A,,Clear,0,2013-03-07 04:35:00
9:55 PM,38.7,9.3,30,30.09,10.0,Calm,Calm,-,N/A,,Clear,0,2013-03-07 04:55:00
10:15 PM,39.7,10.9,31,30.09,10.0,SW,8.1,-,N/A,,Clear,230,2013-03-07 05:15:00
10:35 PM,42.4,11.7,29,30.09,10.0,SW,9.2,-,N/A,,Clear,230,2013-03-07 05:35:00
10:55 PM,41.4,11.5,30,30.09,10.0,SW,8.1,-,N/A,,Clear,220,2013-03-07 05:55:00
11:15 PM,36.7,10.8,34,30.09,10.0,SSE,4.6,-,N/A,,Clear,150,2013-03-07 06:15:00
11:35 PM,39.0,11.7,33,30.09,10.0,SSE,5.8,-,N/A,,Clear,160,2013-03-07 06:35:00
11:55 PM,39.9,12.2,32,30.09,10.0,WSW,6.9,-,N/A,,Clear,240,2013-03-07 06:55:00